Location: Arrington
(35.8681°N, 86.7092°W)
Time: 08:42:39
(UTC+00:00)

STARLINK 1029 - Pass Details

Date: 23 November 2019
Orbit: 348 x 351 km, 53.0° (Epoch: 07 December)

Event Time Altitude Azimuth Distance (km) Brightness Sun altitude
Exits shadow 11:28:31 16° 242° (WSW) 1,011 4.6 -12.7°
Maximum altitude 11:30:39 56° 318° (NW) 420 2.7 -12.2°
Drops below altitude 10° 11:33:32 10° 38° (NE) 1,311 5.8 -11.7°
Sets 11:35:34 0° 43° (NE) 2,157 7.0 -11.3°
